Regional Weather Roundup
Issued by NWS

Home | Current Version | Previous Version | Graphics & Text | Print | Product List | Glossary On
Versions: 1 2 3 4 5 6 7 8 9 10 11 12 13 14 15 16 17 18 19 20 21 22 23 24 25 26 27 28 29 30 31 32 33 34 35 36 37 38 39 40 41 42 43 44 45 46 47 48 49 50
000
ASUS45 KTFX 280610
RWRMT
MONTANA REGIONAL WEATHER ROUNDUP
NATIONAL WEATHER SERVICE GREAT FALLS MT
1200 AM MDT THU JUL 28 2016

NOTE: "FAIR" INDICATES FEW OR NO CLOUDS BELOW 12000 FEET WITH NO
SIGNIFICANT WEATHER AND/OR OBSTRUCTIONS TO VISIBILITY.

MTZ001>007-043-280700-
WEST OF THE DIVIDE

CITY           SKY/WX    TMP DP  RH WIND       PRES   REMARKS
KALISPELL      CLOUDY    67  55  65 N14       30.12R
MISSOULA       PTCLDY    76  44  32 CALM      30.11R
BUTTE          CLOUDY    67  47  48 N3        30.26R
MULLAN PASS    CLEAR     65  43  44 NW5       30.28S
ANACONDA         N/A     61  48  63 CALM      30.23R
DEER LODGE       N/A     64  48  55 NW7       30.24R
EUREKA           N/A     64  57  77 SW3       30.15S
HAMILTON         N/A     63  52  67 CALM      30.13R
LIBBY            N/A     70  50  49 CALM      30.11R
PLAINS           N/A     66  59  78 CALM      30.10R
RONAN            N/A     66  53  63 N5        30.15R
$$

MTZ008-052>055-280700-
SOUTHWEST MONTANA

CITY           SKY/WX    TMP DP  RH WIND       PRES   REMARKS
BOZEMAN        TSTM      69  51  52 S23G31    30.21R
DILLON         CLOUDY    61  50  67 W10       30.19R
W YELLOWSTONE  CLOUDY    57  48  72 NE3       30.32R
ENNIS          MOCLDY    66  45  45 SE16G28   30.34R
THREE FORKS      N/A     68  32  26 CALM      30.15S
TWIN BRIDGES     N/A     68  48  48 NW3       30.15R
$$

MTZ009-010-012-014-046-048-049-054-280700-
EAST SLOPES AND CENTRAL MONTANA

CITY           SKY/WX    TMP DP  RH WIND       PRES   REMARKS
CUT BANK       CLOUDY    60  56  86 S5        30.22F
GREAT FALLS    CLOUDY    65  48  54 NE14      30.22R
MALMSTROM AFB  CLOUDY    62  53  73 E8        30.23R
HELENA         PTCLDY    69  51  52 W8        30.18R
CHOTEAU          N/A     61  54  77 NW9       30.27S
CONRAD           N/A     58  58 100 N5        30.23S
$$

MTZ011-013-016-021-045-047-050-051-280700-
NORTH CENTRAL MONTANA

CITY           SKY/WX    TMP DP  RH WIND       PRES   REMARKS
HAVRE          PTCLDY    63  60  90 S5        30.19R
LEWISTOWN      PTCLDY    60  53  77 E7        30.23S
N BAR RANCH      N/A     57  52  82 CALM      30.27R
CHINOOK          N/A     61  61 100 CALM      30.19S
$$

MTZ017>020-022>027-061-062-280700-
NORTHEAST MONTANA

CITY           SKY/WX    TMP DP  RH WIND       PRES   REMARKS
GLASGOW        MOCLDY    61  58  90 VRB5      30.16R
JORDAN           N/A     62  59  90 N3        30.17R
SIDNEY         CLEAR     62  60  93 NE7       30.15R
WOLF POINT     PTCLDY    63  59  87 NE6       30.15S
PLENTYWOOD       N/A     59  57  94 NE6       30.18S
SCOBEY           N/A     56  44  64 CALM      30.16S
$$

MTZ028>42-056>058-280700-
SOUTHCENTRAL AND SOUTHEAST MONTANA

CITY           SKY/WX    TMP DP  RH WIND       PRES   REMARKS
BAKER          CLEAR     61  59  93 SE8       30.13F
BILLINGS       MOCLDY    67  57  70 NE7       30.18R
LIVINGSTON     MOCLDY    70  51  51 E16       30.20R
MILES CITY     CLEAR     66  60  81 N12       30.11S
EKALAKA          N/A     59  54  83 E5        30.11F
FORSYTH          N/A     63  61  94 CALM      30.11F
LAUREL           N/A     67  53  60 NE1       30.16R
ROUNDUP          N/A     62  54  75 CALM      30.10S
$$

REGIONAL REPORTS...DAKOTAS

CITY           SKY/WX    TMP DP  RH WIND       PRES   REMARKS
WILLISTON      CLOUDY    64  60  87 VRB5      30.16S
MINOT          CLOUDY    66  57  72 NE7       30.15S
DICKINSON      PTCLDY    58  57  97 SE7       30.13F
CROSBY           N/A     57  57 100 CALM      30.20S FOG
WATFORD CITY     N/A    N/A N/A N/A MISG        N/A
BISMARCK       CLOUDY    65  62  90 E3        30.14R
GRAND FORKS    CLOUDY    61  57  87 N7        30.09R
FARGO          CLOUDY    63  59  87 NW7       30.06R
BUFFALO SD       N/A     63  60  90 E10       30.06F
RAPID CITY     MOCLDY    61  57  87 CALM      30.16R
$$

REGIONAL REPORTS...WYOMING/IDAHO/WASHINGTON

CITY           SKY/WX    TMP DP  RH WIND       PRES   REMARKS
GILLETTE       MOCLDY    67  59  75 SE9       30.17S
SHERIDAN       PTCLDY    68  54  60 E5        30.16S
BUFFALO WY     CLOUDY    66  51  58 SE3       30.22F
CODY           CLEAR     68  48  49 N8        30.22F
YELLOWSTONE LA   N/A     56  42  59 VRB6      30.38S
IDAHO FALLS    CLEAR     64  44  48 CALM      30.07R
SALMON         CLEAR     70  41  35 SE5       30.08S
BOISE          CLEAR     80  46  30 SE3       29.96R
SPOKANE        CLEAR     78  45  30 W5        30.05R
$$

REGIONAL REPORTS...ALBERTA

CITY           SKY/WX    TMP DP  RH WIND       PRES   REMARKS
EDMONTON       PTCLDY    63  57  82 W7        30.14S
CALGARY        PTCLDY    59  54  82 N7        30.22R
LETHBRIDGE     MOCLDY    61  59  94 VRB2      30.18F
MEDICINE HAT   CLEAR     63  59  88 SW2       30.16R
WATERTON GATE    N/A     52  50  93 SW5         N/A
MILK RIVER       N/A     61  59  94 S1          N/A
$$

REGIONAL REPORTS...SASKATCHEWAN

CITY           SKY/WX    TMP DP  RH WIND       PRES   REMARKS
SWIFT CURRENT  CLEAR     57  54  88 SE8       30.19R
REGINA         CLEAR     59  55  88 SE7       30.19R
SASKATOON      PTCLDY    63  55  77 S6        30.18R
CYPRESS HILLS    N/A     55  52  88 S3          N/A
VAL MARIE        N/A     54  52  94 N1          N/A
ROCKGLEN         N/A     57  54  88 SE1         N/A
ASSINIBOIA       N/A    N/A N/A N/A S2          N/A
$$



USA.gov is the U.S. government's official web portal to all federal, state and local government web resources and services.